Location: Hartford
(41.7640°N, 72.6860°W)
Time: 13:29:19
(UTC-04:00)

ISS - Visible Passes

Search period start: 25 October 2014 00:00
Search period end: 03 November 2014 23:00
Orbit: 412 x 416 km, 51.6° (Epoch: 25 October)

Date Brightness Start Highest point End Pass type
(mag) Time Alt. Az. Time Alt. Az. Time Alt. Az.
25 Oct -3.4 18:51:23 10° NW 18:54:44 80° NE 18:57:21 16° ESE visible
25 Oct 0.0 20:29:35 10° WSW 20:30:14 12° WSW 20:30:14 12° WSW visible
26 Oct -0.9 19:39:21 10° W 19:41:57 21° SW 19:43:41 15° S visible
27 Oct -1.8 18:49:43 10° WNW 18:52:50 37° SW 18:55:56 10° SSE visible
29 Oct -0.2 18:48:43 10° W 18:50:34 14° SW 18:52:24 10° SSW visible
